sat.trackr.live / text

‹ back to catalog

STARLINK-3100

NORAD 49144 · 2021-082Q

PAYLOAD ACTIVE UNKNOWN

§ Identity

Operator
Country
US
Launch date
2021-09-14
Launch site
AFWTR
Launch vehicle
Mass (kg)
RCS (m²)

Purposes: comms

External: N2YO · Heavens-Above · Gunter

§ Orbital elements

Epoch: 2026-09-19T10:31:58.648800Z

Period
96.11 min
Inclination
70.0001°
Eccentricity
0.0002796
Mean motion
14.98331778 rev/d
Perigee alt
570.1 km
Apogee alt
574.0 km
Semi-major
6,950.2 km
B*
3.6942e-5
RAAN
165.9352°
Arg perigee
269.9007°
Mean anomaly
90.1832°
Rev number
27,500

§ Raw data

STARLINK-31001 49144U 21082Q   26262.43887325  .00000348  00000+0  36942-4 0  99952 49144  70.0001 165.9352 0002796 269.9007  90.1832 14.98331778275008

JSON: /api/v1/satellites/49144 · /tle

For live sub-satellite position, see the globe view (requires WebGL).

§ Visibility from observer

Set your observer location to see the next 7 days of passes ≥ 10°. The values pass through the URL so the page stays shareable.

No JS? Fill the form by hand. The geolocation button needs JavaScript.

§ Radio — SatNOGS DB

ModeDescriptionDownlinkUplink
CW Ku-band 11325 MHz beacon 11.325 GHz
CW Ku-band 11575 MHz beacon 11.575 GHz
CW Ku-band 11950 MHz beacon 11.950 GHz
CW Ku-band 12450 MHz beacon 12.450 GHz

4 transmitters · refreshed weekly from db.satnogs.org